Regional Weather Roundup
Issued by NWS

Home | Current Version | Previous Version | Graphics & Text | Print | Product List | Glossary On
Versions: 1 2 3 4 5 6 7 8 9 10 11 12 13 14 15 16 17 18 19 20 21 22 23 24 25 26 27 28 29 30 31 32 33 34 35 36 37 38 39 40 41 42 43 44 45 46 47 48 49 50
000
ASUS43 KMPX 270810
RWRMN
WEATHER ROUNDUP FOR MINNESOTA
NATIONAL WEATHER SERVICE TWIN CITIES/CHANHASSEN MN
200 AM CST MON FEB 27 2017


NOTE: "FAIR" INDICATES FEW OR NO CLOUDS BELOW 12,000 FEET WITH NO
SIGNIFICANT WEATHER AND/OR OBSTRUCTIONS TO VISIBILITY. N/A MEANS
CURRENT SKY AND/OR WEATHER CONDITIONS ARE NOT AVAILABLE.

MNZ060>063-068>070-270900-
   Twin Cities Metro

CITY           SKY/WX    TMP DP  RH WIND       PRES   REMARKS
TWIN CITIES    PTCLDY    26  20  77 SE7       29.96S WCI  18
ST PAUL        CLEAR     27  23  85 S6        29.97S WCI  20
CRYSTAL        CLOUDY    26  16  65 CALM      29.94S
BLAINE         CLOUDY    28  19  69 E3        29.95S
LAKEVILLE        N/A     23  23 100 S3        29.96S
EDEN PRAIRIE   PTCLDY    26  20  77 S7        29.94S WCI  18
SOUTH ST PAUL  MOCLDY    28  23  83 SE3       29.96S
LAKE ELMO      FAIR      28  23  80 S6        29.97S WCI  22
$$
MNZ001>005-007-008-013>017-022>024-027-028-270900-
   Northwest Minnesota

CITY           SKY/WX    TMP DP  RH WIND       PRES   REMARKS
BEMIDJI        CLEAR      3   0  87 CALM      29.90R
HALLOCK        CLOUDY    12   9  85 S8        29.88R WCI   1
ROSEAU         CLEAR      7   1  78 S9        29.87R WCI  -7
WARROAD        CLEAR      9   3  78 SW7       29.86S WCI  -3
THIEF RVR FALL CLEAR      7   4  87 S6        29.91  WCI  -3
CROOKSTON      CLEAR      9   7  92 S5        29.93R WCI   0
FOSSTON        CLEAR      7   3  85 S6        29.90S WCI  -3
DETROIT LAKES  CLOUDY    19  12  73 SE3       29.90S
MOORHEAD       CLOUDY    19  12  73 S5        29.93R WCI  13
PARK RAPIDS    CLOUDY    16   8  71 SE3       29.89F
MAHNOMEN       FAIR      13   9  84 SE5       29.91R WCI   5
$$
MNZ006-009>011-018-025>026-270900-
   North Central Minnesota

CITY           SKY/WX    TMP DP  RH WIND       PRES   REMARKS
BAUDETTE       CLEAR      7   3  84 SW5       29.86S WCI  -2
FLAG ISLAND    CLEAR      9   5  85 SW8       29.84R WCI  -4
INTL FALLS     CLEAR      2  -3  80 SW3       29.89R
WASKISH        PTCLDY     7   3  85 S3        29.90R
BIG FORK       CLEAR     -6  -9  84 CALM      29.91R
LONGVILLE      CLOUDY    10   7  85 CALM      29.92S
GRAND RAPIDS   CLOUDY     8   4  83 CALM      29.94R
CRANE LAKE     CLEAR     -6  -8  92 CALM      29.94R
ORR            PTCLDY     3  -2  78 CALM      29.89R
COOK           CLEAR     -4  -8  84 CALM      29.92R
WALKER         CLOUDY     9   4  82 CALM      29.91R
$$
MNZ012-019>021-037-270900-
   Northeast Minnesota

CITY           SKY/WX    TMP DP  RH WIND       PRES   REMARKS
DULUTH         CLOUDY    13   1  59 SW7       29.93R WCI   3
ELY            CLEAR     -6  -9  84 CALM      29.92R
HIBBING        PTCLDY    -5  -8  87 CALM      29.92R
EVELETH        PTCLDY    -5 -11  77 CALM      29.93R
DULUTH HARBOR  CLOUDY    12   5  73 CALM      30.00R
TWO HARBORS    MOCLDY    10   0  61 NW5       29.93R WCI   2
SILVER BAY     CLEAR      0  -2  92 CALM      29.93R
GRAND MARAIS     N/A     16   0  49 NW8       29.97R WCI   5
G MARAIS ARPRT CLEAR      3  -6  66 W5        29.88R WCI  -6
$$
MNZ029>031-032-039>041-046>048-054>057-064-270900-
   West Central Minnesota

CITY           SKY/WX    TMP DP  RH WIND       PRES   REMARKS
FERGUS FALLS   CLOUDY    18  10  73 W3        29.95F
WHEATON        CLOUDY    21  18  86 NE3       29.93R
MORRIS         CLOUDY    21  18  86 NE6       29.88S WCI  14
ALEXANDRIA     CLOUDY    21  17  84 E7        29.89S WCI  12
ELBOW LAKE     CLOUDY    18  14  84 CALM      29.91R
WADENA         CLOUDY    16  10  79 CALM      29.90S
GLENWOOD       CLOUDY    19  18  93 NE6       29.89F WCI  11
APPLETON       CLOUDY    27  21  80 E5        29.88S WCI  21
BENSON         CLOUDY    27  16  63 SE7       29.89F WCI  19
ORTONVILLE       N/A     25  18  74 CALM      29.88R
MADISON        MOCLDY    28  25  86 CALM      29.88S
WILLMAR        FAIR      27  23  86 SE7       29.90F WCI  19
$$
MNZ033>034-036-042>043-049>051-058-059-270900-
   Central Minnesota

CITY           SKY/WX    TMP DP  RH WIND       PRES   REMARKS
ST CLOUD       CLOUDY    25  18  74 NE3       29.93S
SAUK CENTRE    CLOUDY    21  19  91 NE5       29.91S WCI  14
PAYNESVILLE    CLOUDY    25  16  69 E3        29.91S
AITKIN         CLOUDY    19   9  63 CALM      29.93R
PINE RIVER     CLOUDY    14  10  85 CALM      29.95F
BRAINERD       CLOUDY    17  11  77 CALM      29.93S
STAPLES        CLOUDY    16  10  79 CALM      29.91S
LONG PRAIRIE   CLOUDY    21  18  86 NE3       29.91F
LITTLE FALLS   FLURRIES  21  18  86 E3        29.94R
LITCHFIELD     CLOUDY    28  21  74 E6        29.91F WCI  22
BUFFALO        CLOUDY    27  19  72 NE3       29.95S
MAPLE LAKE     CLOUDY    28  21  76 E3        29.94S
HUTCHINSON     CLOUDY    29  25  88 SE3       29.92S
$$
MNZ037-044-045-052-053-270900-
   East Central Minnesota

CITY           SKY/WX    TMP DP  RH WIND       PRES   REMARKS
PRINCETON      FLURRIES  27  18  69 CALM      29.95S
MORA           LGT SNOW  23  16  74 CALM      29.97S
CAMBRIDGE      FLURRIES  27  18  69 S3        29.94S
RUSH CITY      LGT SNOW  25  14  63 CALM      29.96S
MOOSE LAKE     CLOUDY    14   9  79 CALM      29.94S
HINCKLEY       CLOUDY    23  16  74 CALM      29.96S
CLOQUET        CLOUDY     7   1  78 SW3       29.94R
MCGREGOR       CLOUDY    16  10  79 CALM      29.95R
$$
MNZ071>073-080-081-089-090-097-098-270900-
   Southwest Minnesota

CITY           SKY/WX    TMP DP  RH WIND       PRES   REMARKS
MONTEVIDEO     CLOUDY    27  23  86 S3        29.90F
GRANITE FALLS  CLOUDY    28  26  89 SE6       29.90F WCI  22
CANBY          MOCLDY    31  25  77 CALM      29.88S
MARSHALL       CLOUDY    31  23  72 SW15      29.88S WCI  20
REDWOOD FALLS  PTCLDY    29  23  78 S9        29.90S WCI  20
OLIVIA         PTCLDY    30  27  86 S6        29.90R WCI  24
PIPESTONE      CLEAR     27  19  74 SW12      29.89R WCI  16
WINDOM         CLEAR     28  25  86 S9        29.92S WCI  20
WORTHINGTON    CLEAR     27  22  81 SW15      29.92S WCI  15
JACKSON        CLEAR     25  21  86 SW7       29.94R WCI  17
TRACY          PTCLDY    31  24  77 SW16      29.89S WCI  20
SLAYTON        CLEAR     27  23  86 SW12      29.91R WCI  17
$$
MNZ065>067-074>077-082>085-091>093-270900-
   South Central Minnesota

CITY           SKY/WX    TMP DP  RH WIND       PRES   REMARKS
MANKATO          N/A     21  18  88 S5        29.96S WCI  15
NEW ULM        PTCLDY    27  21  80 S8        29.93S WCI  18
ST JAMES       CLEAR     27  23  86 S9        29.95S WCI  17
FAIRMONT       CLEAR     17  14  88 S6        29.96S WCI   9
GLENCOE        CLOUDY    29  28  94 S5        29.92S WCI  24
FARIBAULT      CLEAR     19  18  93 S5        29.97S WCI  13
OWATONNA       CLEAR     21  18  86 S10       29.96S WCI  10
WASECA         CLEAR     23  19  86 S9        29.97F WCI  13
ALBERT LEA     CLEAR     21  19  93 S3        29.98S
$$
MNZ078>079-086>088-094>096-270900-
   Southeast Minnesota

CITY           SKY/WX    TMP DP  RH WIND       PRES   REMARKS
ROCHESTER      CLEAR     15  13  91 S7        29.98R WCI   5
RED WING       PTCLDY    25  19  80 S7        29.98S WCI  17
STANTON        CLEAR     23  19  86 S5        29.96S WCI  16
WINONA         PTCLDY    19  18  93 CALM      30.04S
AUSTIN         CLEAR     14  12  92 S5        29.99  WCI   6
PRESTON        CLEAR     20  18  91 SW9       29.99F WCI   9
$$
ABBREVIATIONS USED IN REMARKS
   TC - TEMPERATURES IN CELSIUS
  WCI - WIND CHILL INDEX
   HX - HEAT INDEX
  VSB - VISIBILITY
$$




USA.gov is the U.S. government's official web portal to all federal, state and local government web resources and services.